Antalya, Turkey

4:47 AM +03 on June 24, 2017 (GMT +0300)
Antalya

Weather History for LTAI - November, 2013

Change the Weather History Date:

Wednesday, November 6, 2013

  Actual Average Record
Temperature  
Mean Temperature 64 °F -  
Max Temperature 73 °F 68 °F 80 °F (2008)
Min Temperature 56 °F 50 °F 37 °F (2006)
Growing Degree Days 14 (Base 50)    
Moisture  
Dew Point 58 °F    
Average Humidity 81    
Maximum Humidity 94    
Minimum Humidity 56    
Precipitation  
Precipitation 0.20 in 0.22 in - ()
Sea Level Pressure  
Sea Level Pressure 29.95 in    
Wind  
Wind Speed 3 mph ()    
Max Wind Speed 14 mph    
Max Gust Speed -    
Visibility 6.0 miles    
Events Rain , Thunderstorm    
Averages and records for this station are not official NWS values.
T = Trace of Precipitation, MM = Missing Value Source: Averaged Metar Reports

Daily Weather History Graph

Daily Weather History Graph

Search for Another Location

Airport or City:

Trip Planner

Search our weather history database for the weather conditions in past years. The results will help you decide how hot, cold, wet, or windy it might be!

Date:

Astronomy

Nov. 06, 2013 Rise Set
Actual Time 6:25 AM EET 4:54 PM EET
Civil Twilight 5:58 AM EET 5:22 PM EET
Nautical Twilight 5:27 AM EET 5:52 PM EET
Astronomical Twilight 4:57 AM EET 6:23 PM EET
Moon 9:19 AM EET (11/6) 7:39 PM EET (11/6)
Length of Visible Light 11h 23m
Length of Day
10h 29m
Waxing Crescent, 11% of the Moon is Illuminated
Nov 6
Waxing Crescent
Nov 10
First Quarter
Nov 17
Full
Nov 25
Last Quarter
Dec 3
New

Hourly Weather History & Observations

Time (EET) Temp. Dew Point Humidity Pressure Visibility Wind Dir Wind Speed Gust Speed Precip Events Conditions
12:20 AM 59.0 °F 55.4 °F 88% 30.01 in 6.2 mi North 1.2 mph - N/A   Scattered Clouds
12:50 AM 59.0 °F 55.4 °F 88% 30.01 in 6.2 mi Variable 1.2 mph - N/A   Scattered Clouds
1:20 AM 57.2 °F 55.4 °F 94% 30.01 in 6.2 mi NNW 3.5 mph - N/A   Scattered Clouds
1:50 AM 57.2 °F 55.4 °F 94% 30.01 in 6.2 mi NW 4.6 mph - N/A   Scattered Clouds
2:00 AM 57 °F 54 °F 88% 30.00 in 6 mi NW 4.6 mph - -   Partly Cloudy
2:20 AM 59.0 °F 55.4 °F 88% 30.01 in 6.2 mi NW 2.3 mph - N/A   Scattered Clouds
2:50 AM 59.0 °F 55.4 °F 88% 30.01 in 6.2 mi Variable 2.3 mph - N/A   Scattered Clouds
3:20 AM 59.0 °F 57.2 °F 94% 30.01 in 6.2 mi North 3.5 mph - N/A   Scattered Clouds
3:50 AM 59.0 °F 55.4 °F 88% 29.98 in 6.2 mi North 3.5 mph - N/A   Scattered Clouds
4:20 AM 57.2 °F 55.4 °F 94% 29.98 in 6.2 mi NNW 4.6 mph - N/A   Scattered Clouds
4:50 AM 57.2 °F 55.4 °F 94% 29.98 in 6.2 mi NNW 3.5 mph - N/A   Scattered Clouds
5:20 AM 57.2 °F 53.6 °F 88% 29.98 in 6.2 mi North 5.8 mph - N/A   Scattered Clouds
5:50 AM 57.2 °F 55.4 °F 94% 29.98 in 6.2 mi NNW 3.5 mph - N/A   Scattered Clouds
6:20 AM 57.2 °F 55.4 °F 94% 29.98 in 6.2 mi NNW 3.5 mph - N/A   Scattered Clouds
6:50 AM 57.2 °F 55.4 °F 94% 29.98 in 6.2 mi NW 3.5 mph - N/A   Mostly Cloudy
7:20 AM 59.0 °F 55.4 °F 88% 30.01 in 6.2 mi NNW 4.6 mph - N/A   Mostly Cloudy
7:50 AM 60.8 °F 57.2 °F 88% 30.01 in 6.2 mi Variable 2.3 mph - N/A   Mostly Cloudy
8:00 AM 60 °F 57 °F 86% 30.00 in 6 mi North 2.3 mph - -   Partly Cloudy
8:20 AM 62.6 °F 57.2 °F 82% 30.01 in 6.2 mi North 5.8 mph - N/A   Mostly Cloudy
8:50 AM 64.4 °F 57.2 °F 77% 30.01 in 6.2 mi NNW 5.8 mph - N/A   Mostly Cloudy
9:20 AM 66.2 °F 57.2 °F 73% 30.01 in 6.2 mi NNE 3.5 mph - N/A   Mostly Cloudy
9:50 AM 68.0 °F 53.6 °F 60% 30.01 in 6.2 mi ENE 4.6 mph - N/A   Mostly Cloudy
10:20 AM 69.8 °F 53.6 °F 56% 30.01 in 6.2 mi ENE 4.6 mph - N/A   Mostly Cloudy
10:50 AM 71.6 °F 55.4 °F 57% 29.98 in 6.2 mi Variable 3.5 mph - N/A   Mostly Cloudy
11:20 AM 69.8 °F 53.6 °F 56% 29.98 in 6.2 mi ENE 2.3 mph - N/A   Mostly Cloudy
11:50 AM 69.8 °F 53.6 °F 56% 29.95 in 6.2 mi East 3.5 mph - N/A   Mostly Cloudy
12:20 PM 71.6 °F 57.2 °F 60% 29.95 in 6.2 mi East 4.6 mph - N/A   Mostly Cloudy
12:50 PM 73.4 °F 60.8 °F 65% 29.95 in 6.2 mi ESE 6.9 mph - N/A   Mostly Cloudy
1:20 PM 69.8 °F 59.0 °F 68% 29.95 in 6.2 mi SSE 4.6 mph - N/A   Mostly Cloudy
1:50 PM 69.8 °F 59.0 °F 68% 29.95 in 6.2 mi Variable 1.2 mph - N/A   Mostly Cloudy
2:00 PM 70 °F 59 °F 59% 29.93 in 6 mi ESE 1.2 mph - -   Mostly Cloudy
2:20 PM 69.8 °F 59.0 °F 68% 29.92 in 6.2 mi SW 3.5 mph - N/A   Mostly Cloudy
2:50 PM 69.8 °F 60.8 °F 73% 29.92 in 6.2 mi SSE 5.8 mph - N/A   Mostly Cloudy
2:58 PM 69.8 °F 60.8 °F 73% 29.95 in 6.2 mi SSE 6.9 mph - N/A Rain Light Rain Showers
3:03 PM 64.4 °F 60.8 °F 88% 29.92 in 1.2 mi SSE 8.1 mph - N/A Rain Heavy Rain Showers
3:06 PM 64.4 °F 59.0 °F 83% 29.92 in 4.3 mi East 8.1 mph - N/A Rain Light Rain Showers
3:20 PM 64.4 °F 57.2 °F 77% 29.92 in 6.2 mi Variable 2.3 mph - N/A Rain Light Rain Showers
3:50 PM 64.4 °F 57.2 °F 77% 29.92 in 6.2 mi Variable 1.2 mph - N/A   Mostly Cloudy
3:58 PM 69.8 °F 60.8 °F 73% 29.95 in 6.2 mi SSE 6.9 mph - N/A Rain Light Rain Showers
4:17 PM 64.4 °F 59.0 °F 83% 29.92 in 6.2 mi South 3.5 mph - N/A Rain Light Rain Showers
4:20 PM 64.4 °F 59.0 °F 83% 29.92 in 6.2 mi South 3.5 mph - N/A Rain Light Rain Showers
4:50 PM 66.2 °F 59.0 °F 78% 29.92 in 6.2 mi South 4.6 mph - N/A Rain Light Rain Showers
5:20 PM 66.2 °F 59.0 °F 78% 29.92 in 6.2 mi SSE 3.5 mph - N/A Rain Light Rain Showers
5:50 PM 64.4 °F 59.0 °F 83% 29.92 in 6.2 mi SSE 3.5 mph - N/A   Mostly Cloudy
6:20 PM 64.4 °F 60.8 °F 88% 29.92 in 6.2 mi North 6.9 mph - N/A   Mostly Cloudy
6:50 PM 62.6 °F 59.0 °F 88% 29.92 in 6.2 mi North 4.6 mph - N/A   Mostly Cloudy
7:20 PM 64.4 °F 59.0 °F 83% 29.92 in 6.2 mi North 4.6 mph - N/A   Mostly Cloudy
7:50 PM 62.6 °F 60.8 °F 94% 29.92 in 6.2 mi North 4.6 mph - N/A   Mostly Cloudy
8:00 PM 63 °F 60 °F 85% 29.91 in 6 mi North 4.6 mph - -   Partly Cloudy
8:20 PM 64.4 °F 60.8 °F 88% 29.92 in 6.2 mi Variable 2.3 mph - N/A   Mostly Cloudy
8:50 PM 62.6 °F 59.0 °F 88% 29.92 in 6.2 mi North 3.5 mph - N/A   Mostly Cloudy
9:20 PM 62.6 °F 60.8 °F 94% 29.89 in 6.2 mi ENE 1.2 mph - N/A   Mostly Cloudy
9:50 PM 62.6 °F 59.0 °F 88% 29.89 in 6.2 mi Calm Calm - N/A   Mostly Cloudy
10:20 PM 62.6 °F 59.0 °F 88% 29.92 in 6.2 mi NNW 4.6 mph - N/A   Mostly Cloudy
10:50 PM 62.6 °F 59.0 °F 88% 29.89 in 6.2 mi Variable 2.3 mph - N/A   Mostly Cloudy
11:20 PM 62.6 °F 59.0 °F 88% 29.89 in 6.2 mi NW 4.6 mph - N/A   Mostly Cloudy
11:29 PM 62.6 °F 59.0 °F 88% 29.89 in 6.2 mi NNW 6.9 mph - N/A Thunderstorm Mostly Cloudy
11:35 PM 62.6 °F 59.0 °F 88% 29.89 in 6.2 mi NNW 6.9 mph - N/A Thunderstorm Thunderstorm
11:50 PM 62.6 °F 59.0 °F 88% 29.92 in 6.2 mi West 6.9 mph - N/A Rain , Thunderstorm Light Thunderstorms and Rain
11:55 PM 60.8 °F 53.6 °F 77% 29.92 in 2.5 mi SSW 13.8 mph - N/A Rain , Thunderstorm Thunderstorms and Rain